Temp
-17 -17 -17 -17 -17 -17 -18 -18 -18 -17 -19 -16 -16 -17 -17 -16 -17 -17 -16 -16 -16 -15 -15 -15 -15 -14 -14 -14 -14 -14 -13 -13 -13 -13 -13 -13 -13 -13 -13 -14 -14 -13 -13 -13
-17 -18 -18 -17 -17 -17 -18 -18 -19 -19 -18 -18 -17 -18 -17 -17 -17 -17 -17 -17 -16 -16 -16 -15 -15 -16 -15 -15 -15 -15 -14 -13 -13 -13 -14 -13 -13 -13 -14 -14 -14 -13 -13 -13
-17 -18 -18 -17 -17 -18 -18 -19 -21 -20 -20 -19 -20 -19 -19 -18 -18 -18 -17 -17 -17 -16 -16 -16 -16 -16 -16 -16 -17 -16 -15 -14 -13 -14 -14 -14 -14 -14 -13 -14 -13 -13 -13 -14
-18 -19 -18 -17 -18 -18 -19 -21 -22 -22 -22 -23 -21 -20 -19 -19 -19 -19 -19 -19 -18 -17 -16 -16 -16 -17 -16 -16 -16 -16 -16 -15 -14 -13 -14 -14 -14 -14 -13 -14 -14 -13 -13 -14
-20 -20 -19 -17 -19 -21 -23 -22 -23 -24 -24 -23 -23 -22 -19 -20 -21 -20 -19 -19 -18 -18 -17 -17 -17 -17 -17 -16 -16 -16 -16 -15 -14 -14 -13 -13 -14 -14 -14 -13 -13 -14 -14 -14
-21 -22 -20 -18 -19 -22 -24 -23 -23 -24 -24 -24 -24 -24 -21 -22 -22 -22 -22 -21 -20 -19 -19 -18 -18 -18 -17 -17 -17 -15 -16 -16 -15 -14 -14 -13 -13 -13 -14 -14 -13 -13 -14 -14
-23 -23 -21 -20 -22 -25 -25 -24 -24 -24 -24 -25 -25 -24 -23 -23 -22 -23 -23 -23 -23 -23 -21 -20 -20 -20 -19 -18 -17 -17 -16 -16 -15 -15 -15 -14 -15 -14 -14 -14 -14 -14 -15 -15
-24 -24 -22 -23 -23 -24 -24 -24 -25 -24 -24 -24 -24 -24 -24 -23 -23 -23 -23 -23 -23 -23 -23 -23 -23 -22 -21 -19 -19 -18 -17 -16 -16 -17 -16 -16 -14 -14 -14 -14 -15 -15 -15 -15
-25 -24 -24 -25 -24 -25 -25 -25 -25 -25 -24 -24 -24 -24 -24 -23 -23 -24 -24 -24 -24 -24 -23 -23 -23 -22 -22 -21 -20 -19 -18 -17 -17 -16 -17 -16 -15 -16 -16 -16 -16 -16 -16 -16
-25 -24 -26 -25 -25 -25 -25 -25 -25 -25 -25 -24 -24 -24 -24 -24 -24 -24 -23 -24 -24 -24 -24 -23 -23 -22 -22 -22 -21 -19 -18 -18 -17 -17 -17 -17 -17 -16 -16 -15 -15 -16 -16 -16
-25 -25 -25 -25 -25 -25 -25 -25 -25 -25 -25 -25 -25 -24 -24 -24 -24 -24 -24 -24 -24 -24 -24 -23 -23 -22 -22 -22 -21 -19 -18 -18 -17 -17 -17 -17 -17 -16 -15 -15 -15 -16 -16 -16
-24 -24 -25 -24 -25 -25 -25 -25 -25 -25 -25 -25 -25 -24 -24 -24 -24 -24 -24 -24 -24 -24 -24 -23 -23 -22 -22 -21 -21 -19 -18 -17 -17 -17 -17 -16 -16 -16 -15 -16 -16 -16 -16 -17
-24 -25 -25 -25 -25 -25 -25 -25 -25 -25 -25 -25 -25 -25 -25 -24 -24 -24 -25 -25 -24 -24 -24 -24 -23 -22 -22 -21 -21 -18 -18 -18 -17 -18 -16 -16 -16 -15 -16 -16 -16 -16 -17 -17
-25 -25 -24 -25 -24 -25 -25 -25 -25 -25 -26 -26 -25 -25 -25 -25 -25 -25 -25 -25 -24 -24 -24 -23 -23 -22 -21 -21 -20 -18 -18 -18 -17 -17 -16 -16 -16 -16 -16 -16 -15 -16 -17 -17
-25 -25 -25 -25 -25 -25 -26 -26 -25 -25 -25 -25 -25 -25 -25 -25 -25 -25 -25 -25 -24 -24 -24 -23 -22 -21 -21 -21 -19 -19 -19 -18 -17 -17 -17 -17 -17 -16 -16 -17 -17 -17 -17 -16
-25 -25 -26 -26 -26 -26 -26 -26 -26 -25 -25 -25 -25 -25 -25 -25 -26 -26 -25 -25 -24 -24 -23 -22 -22 -21 -21 -20 -19 -19 -19 -18 -17 -17 -17 -17 -17 -17 -17 -17 -17 -17 -17 -16
-25 -25 -25 -25 -26 -26 -26 -26 -26 -25 -25 -25 -25 -25 -25 -25 -25 -25 -25 -24 -24 -23 -23 -22 -21 -20 -20 -20 -19 -19 -19 -19 -18 -18 -17 -17 -17 -17 -18 -17 -17 -17 -17 -17
-25 -25 -25 -25 -25 -25 -24 -24 -24 -24 -24 -24 -24 -24 -24 -23 -24 -24 -24 -24 -23 -23 -22 -22 -21 -20 -19 -20 -19 -19 -19 -19 -18 -18 -18 -18 -18 -18 -18 -18 -18 -18 -19 -19
-25 -25 -25 -25 -25 -24 -24 -24 -23 -23 -23 -23 -23 -23 -23 -23 -23 -23 -23 -23 -22 -22 -22 -21 -20 -20 -19 -19 -19 -19 -19 -19 -19 -18 -18 -19 -19 -19 -19 -19 -19 -19 -19 -20
-25 -25 -25 -24 -24 -24 -24 -23 -23 -23 -23 -23 -23 -23 -22 -22 -22 -22 -22 -22 -22 -21 -21 -20 -20 -20 -20 -20 -20 -20 -20 -20 -20 -20 -20 -20 -20 -20 -20 -20 -20 -20 -20 -21
-25 -25 -24 -24 -24 -24 -24 -23 -23 -24 -24 -23 -23 -23 -23 -23 -22 -22 -22 -22 -22 -22 -21 -21 -21 -21 -21 -21 -21 -21 -20 -21 -21 -21 -20 -20 -20 -20 -20 -20 -21 -21 -21 -21
-25 -25 -25 -25 -24 -24 -24 -24 -24 -24 -24 -24 -24 -24 -24 -23 -23 -23 -23 -23 -23 -23 -22 -22 -22 -22 -22 -22 -21 -21 -21 -21 -21 -21 -21 -21 -21 -21 -21 -21 -21 -21 -22 -22
-25 -25 -26 -26 -25 -25 -25 -25 -25 -24 -24 -25 -25 -24 -24 -24 -24 -24 -24 -24 -24 -23 -23 -23 -22 -22 -22 -22 -22 -22 -22 -22 -22 -22 -22 -22 -22 -22 -22 -22 -22 -22 -22 -22
-26 -26 -26 -26 -26 -26 -26 -26 -25 -25 -25 -25 -25 -25 -25 -25 -24 -24 -24 -24 -24 -24 -23 -23 -23 -23 -23 -23 -22 -22 -22 -22 -22 -22 -22 -23 -23 -23 -23 -23 -23 -23 -23 -23
-27 -26 -27 -27 -27 -27 -27 -26 -26 -25 -25 -25 -25 -25 -25 -25 -24 -24 -24 -24 -24 -24 -24 -24 -24 -24 -23 -23 -23 -23 -23 -23 -23 -24 -23 -23 -23 -23 -23 -24 -24 -24 -24 -24
-27 -27 -27 -27 -27 -27 -27 -26 -26 -26 -26 -25 -25 -25 -25 -25 -25 -25 -25 -25 -25 -26 -25 -25 -25 -25 -25 -25 -25 -25 -25 -25 -25 -24 -25 -25 -25 -25 -25 -25 -25 -26 -26 -26
-27 -27 -27 -27 -27 -27 -27 -26 -26 -26 -26 -26 -26 -26 -26 -27 -27 -27 -27 -27 -27 -27 -27 -27 -26 -26 -26 -26 -26 -26 -26 -26 -26 -26 -26 -26 -26 -26 -26 -26 -26 -26 -26 -27
Height
5643 5643 5643 5644 5644 5644 5639 5635 5627 5639 5630 5645 5643 5635 5637 5637 5629 5626 5626 5627 5628 5630 5633 5637 5641 5643 5645 5648 5652 5653 5656 5661 5665 5670 5674 5677 5678 5676 5675 5678 5680 5685 5686 5685
5634 5633 5632 5633 5630 5626 5627 5624 5615 5614 5618 5627 5620 5615 5617 5617 5614 5615 5614 5611 5611 5614 5615 5618 5622 5625 5629 5633 5634 5639 5640 5644 5649 5655 5658 5660 5662 5663 5665 5665 5668 5673 5672 5673
5623 5621 5619 5623 5621 5616 5614 5609 5603 5598 5601 5605 5599 5602 5599 5598 5602 5600 5597 5594 5593 5596 5600 5601 5602 5606 5611 5615 5618 5620 5626 5630 5634 5638 5641 5646 5648 5650 5651 5653 5657 5659 5658 5659
5612 5606 5605 5616 5611 5601 5597 5594 5589 5583 5586 5583 5584 5582 5584 5593 5582 5581 5580 5579 5579 5580 5582 5584 5583 5585 5592 5596 5600 5605 5611 5618 5621 5622 5626 5629 5631 5634 5635 5638 5641 5642 5643 5644
5594 5589 5595 5609 5603 5587 5574 5576 5578 5576 5570 5569 5569 5565 5579 5575 5562 5563 5564 5564 5564 5564 5563 5565 5566 5567 5572 5578 5581 5589 5595 5602 5597 5600 5604 5610 5614 5618 5620 5623 5626 5629 5629 5631
5579 5575 5577 5598 5589 5566 5562 5559 5573 5562 5560 5557 5554 5550 5559 5554 5552 5549 5547 5545 5544 5545 5543 5544 5546 5548 5553 5561 5564 5569 5574 5582 5583 5583 5584 5591 5597 5602 5607 5609 5612 5613 5614 5617
5567 5562 5564 5572 5570 5554 5548 5553 5555 5552 5548 5546 5542 5540 5543 5542 5541 5537 5535 5533 5531 5527 5524 5527 5528 5529 5533 5541 5546 5549 5555 5559 5561 5562 5567 5576 5581 5584 5590 5594 5595 5596 5599 5603
5556 5552 5548 5555 5554 5547 5543 5539 5539 5540 5538 5532 5529 5528 5529 5529 5527 5524 5521 5520 5518 5513 5513 5514 5513 5513 5516 5523 5527 5531 5536 5542 5546 5546 5553 5559 5562 5568 5566 5575 5576 5581 5585 5587
5545 5544 5544 5543 5539 5534 5530 5527 5526 5521 5524 5516 5514 5516 5516 5516 5515 5512 5509 5508 5506 5501 5500 5501 5501 5501 5503 5507 5509 5515 5521 5526 5529 5534 5539 5543 5548 5551 5556 5560 5565 5569 5572 5574
5534 5540 5531 5529 5526 5524 5523 5514 5510 5508 5505 5504 5499 5501 5502 5501 5501 5499 5498 5496 5493 5489 5487 5487 5487 5488 5490 5493 5496 5499 5506 5510 5514 5517 5521 5525 5531 5538 5543 5548 5552 5556 5559 5561
5518 5521 5519 5518 5517 5512 5508 5504 5497 5494 5491 5489 5484 5487 5486 5486 5486 5484 5483 5482 5479 5477 5474 5472 5473 5475 5476 5480 5483 5485 5492 5496 5499 5505 5507 5514 5520 5525 5530 5534 5538 5542 5545 5546
5513 5514 5506 5508 5508 5501 5493 5491 5485 5480 5481 5479 5472 5471 5471 5469 5469 5467 5466 5466 5466 5464 5461 5459 5460 5462 5464 5467 5471 5475 5480 5483 5486 5490 5495 5502 5508 5512 5515 5518 5523 5526 5529 5532
5507 5506 5501 5496 5494 5489 5481 5479 5474 5468 5464 5462 5463 5455 5455 5453 5455 5452 5453 5452 5451 5451 5448 5447 5449 5451 5453 5456 5460 5464 5469 5470 5473 5478 5481 5490 5491 5494 5501 5504 5507 5510 5512 5515
5499 5496 5495 5488 5484 5477 5471 5467 5461 5457 5452 5446 5444 5443 5438 5437 5439 5439 5439 5438 5438 5438 5437 5437 5438 5441 5444 5447 5449 5453 5457 5458 5451 5459 5466 5473 5477 5483 5487 5489 5491 5494 5498 5501
5493 5488 5483 5478 5473 5467 5459 5453 5447 5444 5438 5434 5429 5426 5424 5422 5422 5423 5424 5424 5424 5425 5426 5426 5428 5432 5435 5437 5439 5442 5444 5445 5445 5450 5454 5459 5464 5470 5475 5478 5481 5483 5485 5487
5487 5480 5474 5467 5461 5453 5444 5438 5429 5427 5423 5420 5417 5414 5412 5410 5409 5408 5410 5411 5412 5414 5416 5417 5420 5423 5427 5429 5431 5433 5436 5437 5438 5441 5442 5448 5455 5460 5464 5466 5469 5471 5471 5472
5478 5474 5467 5460 5449 5440 5431 5425 5418 5415 5413 5410 5408 5405 5402 5400 5400 5400 5401 5402 5405 5407 5409 5411 5413 5416 5419 5423 5425 5427 5429 5431 5431 5431 5437 5442 5446 5449 5452 5455 5456 5457 5458 5459
5469 5461 5452 5442 5433 5426 5421 5416 5413 5409 5405 5402 5400 5396 5395 5395 5395 5396 5398 5400 5400 5401 5403 5406 5408 5410 5412 5415 5417 5419 5420 5420 5422 5427 5431 5434 5436 5438 5440 5442 5442 5443 5445 5447
5462 5453 5445 5436 5429 5421 5416 5411 5407 5404 5400 5396 5393 5391 5390 5391 5392 5393 5393 5394 5395 5396 5398 5400 5402 5405 5406 5407 5409 5411 5412 5414 5416 5418 5422 5424 5425 5427 5428 5429 5431 5433 5434 5435
5455 5447 5438 5430 5423 5417 5412 5408 5404 5399 5394 5390 5387 5387 5389 5389 5388 5389 5389 5389 5390 5391 5394 5395 5396 5397 5399 5401 5403 5403 5405 5408 5409 5411 5413 5415 5416 5418 5419 5422 5424 5424 5425 5426
5450 5442 5433 5426 5420 5415 5411 5407 5402 5396 5391 5388 5386 5385 5386 5387 5387 5386 5386 5387 5388 5390 5391 5393 5394 5396 5397 5399 5399 5399 5401 5403 5404 5406 5407 5408 5410 5411 5413 5414 5415 5415 5416 5415
5445 5438 5431 5424 5419 5415 5412 5408 5403 5398 5395 5391 5389 5388 5387 5387 5387 5388 5388 5389 5389 5390 5391 5393 5394 5395 5396 5397 5399 5400 5400 5400 5402 5402 5403 5403 5404 5403 5404 5404 5404 5404 5403 5403
5441 5438 5432 5425 5420 5416 5413 5411 5407 5404 5402 5399 5396 5394 5393 5392 5391 5392 5392 5392 5392 5393 5393 5393 5394 5394 5394 5394 5395 5396 5396 5395 5395 5395 5394 5394 5394 5394 5393 5393 5391 5390 5389 5388
5438 5435 5431 5427 5422 5418 5416 5413 5410 5407 5406 5403 5401 5400 5398 5397 5396 5395 5395 5395 5394 5394 5394 5394 5394 5393 5392 5391 5392 5391 5390 5389 5388 5387 5385 5383 5381 5381 5380 5378 5377 5375 5373 5371
5435 5433 5431 5427 5424 5421 5418 5415 5413 5410 5408 5406 5405 5403 5401 5399 5398 5397 5396 5395 5394 5394 5392 5392 5391 5389 5388 5387 5386 5384 5383 5381 5379 5377 5374 5371 5369 5367 5364 5362 5359 5357 5354 5352
5432 5430 5429 5426 5423 5421 5418 5415 5413 5411 5409 5407 5405 5403 5401 5399 5398 5396 5395 5394 5392 5391 5390 5388 5386 5384 5383 5380 5378 5375 5372 5369 5366 5363 5360 5357 5354 5350 5346 5343 5339 5335 5332 5328
5428 5428 5426 5424 5421 5419 5417 5414 5413 5411 5409 5407 5405 5402 5401 5399 5397 5396 5394 5393 5391 5388 5385 5383 5380 5377 5374 5371 5367 5363 5359 5356 5351 5347 5343 5339 5334 5330 5325 5321 5316 5312 5307 5302
Wind_Speed
45 47 49 50 50 51 54 57 62 55 58 51 53 56 56 56 62 64 64 63 63 59 57 54 53 52 56 63 66 65 60 54 56 58 60 60 62 68 70 65 62 51 46 45
46 47 50 52 54 57 56 56 60 61 59 51 57 60 60 60 62 63 64 66 65 63 62 59 57 56 52 54 60 61 63 61 57 58 61 69 69 70 69 67 61 52 49 46
49 49 51 54 54 55 56 57 59 62 60 57 58 57 59 61 61 62 64 67 69 67 64 63 59 57 57 54 45 55 66 65 62 63 64 65 70 70 72 70 62 57 53 49
48 51 55 50 52 56 56 55 55 57 52 50 56 59 61 54 60 60 62 66 67 67 66 64 63 61 57 62 58 54 59 57 62 67 69 69 71 74 70 67 63 58 51 50
50 54 54 49 47 53 53 54 50 46 42 51 51 55 53 52 54 58 61 63 65 68 70 68 66 66 63 61 68 62 56 63 56 73 67 68 73 75 74 71 65 67 56 52
51 54 57 44 45 54 52 57 43 39 42 39 37 42 50 42 43 46 48 51 55 62 69 71 69 67 67 63 63 72 67 64 77 59 72 73 69 68 70 71 65 68 54 53
47 51 55 49 46 49 53 50 43 38 40 42 45 44 40 38 39 45 44 45 48 50 60 65 65 65 65 61 59 59 72 71 72 84 70 65 67 63 64 68 56 47 49 50
44 47 54 45 42 46 42 43 44 41 41 47 48 47 43 35 37 42 45 47 46 47 48 50 52 51 58 62 61 59 59 72 69 67 63 62 54 67 54 54 43 48 51 52
44 46 44 42 42 44 48 52 49 50 44 49 48 46 43 43 40 39 40 35 35 41 49 45 48 49 48 49 49 61 58 61 59 58 66 66 44 39 44 43 47 47 51 50
46 38 42 40 43 46 47 54 55 54 54 50 51 45 42 39 40 43 43 44 43 45 44 44 44 48 43 41 43 47 60 54 54 52 65 59 50 46 47 51 53 56 60 58
44 40 42 42 44 47 48 51 55 48 51 56 59 52 48 48 48 50 49 50 51 46 45 38 41 44 45 40 40 42 46 48 46 51 58 59 55 55 57 60 61 61 61 57
41 38 46 42 36 40 44 44 43 49 46 46 49 49 46 45 45 47 46 45 45 46 46 40 38 38 35 34 38 41 41 40 42 44 44 52 57 55 56 55 57 58 55 56
37 37 42 41 41 38 42 42 43 46 47 49 45 47 49 52 48 45 44 44 45 43 46 39 33 30 33 32 32 41 34 35 38 41 46 49 50 53 59 63 63 61 60 47
32 33 28 31 29 32 36 38 42 43 44 45 47 50 51 49 49 48 49 52 51 49 44 33 29 28 28 29 29 31 35 41 33 39 43 53 54 56 58 58 61 55 47 44
33 37 40 41 43 46 50 51 51 48 48 45 43 40 43 48 47 48 50 51 44 41 34 31 28 28 28 27 25 29 33 30 26 35 43 41 44 49 51 46 47 48 44 46
32 38 43 48 50 51 51 49 51 48 41 34 36 36 34 34 33 34 38 38 36 31 29 26 28 26 22 26 21 22 24 22 25 25 32 37 41 41 39 38 40 41 40 46
38 42 45 51 50 47 45 42 36 34 29 26 27 27 23 21 22 23 25 24 25 26 25 27 22 22 26 24 26 29 34 27 23 23 28 31 33 35 38 39 38 40 46 48
44 50 53 54 46 36 28 23 21 22 27 31 27 20 18 15 16 17 19 22 17 22 22 20 21 21 24 23 24 26 25 24 20 22 24 27 28 28 35 42 43 42 41 40
44 49 50 43 42 32 26 21 22 25 23 26 26 19 14 10 15 15 19 22 16 16 20 18 15 12 13 15 26 24 17 18 20 23 25 27 26 25 25 25 27 25 24 24
43 47 46 41 29 22 18 18 22 27 26 24 19 14 10 14 17 21 20 15 16 15 13 10 9 9 10 11 12 8 9 11 12 13 14 14 14 14 14 18 21 22 24 25
40 41 38 34 19 19 19 20 20 18 16 12 8 6 6 10 14 15 10 8 6 5 4 4 4 4 5 6 4 5 7 8 9 10 11 13 15 18 20 22 25 27 30 31
37 35 33 18 12 10 13 15 19 22 23 21 16 11 10 8 5 4 5 6 5 5 4 1 1 2 3 6 10 12 13 14 16 17 19 21 22 24 27 29 31 34 35 37
27 24 11 10 10 12 14 12 14 15 16 18 19 18 16 14 13 11 9 7 5 3 2 4 7 10 12 13 17 19 20 20 22 25 27 28 30 32 33 36 38 40 41 44
20 15 9 10 15 17 16 15 12 11 11 11 11 10 9 9 7 6 6 5 5 5 6 8 11 13 15 18 20 23 25 27 29 31 33 35 36 38 40 42 44 47 49 51
13 8 8 8 10 13 10 9 7 7 7 7 6 6 6 6 6 5 6 7 8 10 12 14 16 18 21 24 26 29 31 33 36 38 40 42 45 48 50 52 53 55 57 58
13 12 10 11 11 11 12 12 12 10 8 9 9 9 9 9 10 10 11 12 13 14 16 19 21 23 26 29 31 34 36 39 42 45 47 49 51 54 55 57 60 62 63 65
12 13 12 13 13 14 14 14 13 11 11 12 12 11 11 10 10 11 13 14 17 19 22 25 27 30 32 35 38 40 42 45 47 49 52 54 56 59 61 63 65 68 70 72
Wind_Direction
279 282 283 284 283 282 281 282 283 286 284 282 276 273 267 268 268 269 271 272 271 270 267 260 256 250 246 245 244 246 246 248 248 242 238 240 243 248 254 258 263 266 270 277
278 279 280 281 284 285 287 287 285 284 281 279 272 271 270 267 266 267 268 269 267 267 266 266 262 254 251 248 247 247 242 242 244 249 246 241 245 248 253 256 263 268 266 275
277 279 281 282 287 288 287 286 285 282 283 278 277 273 272 269 270 269 268 267 267 267 265 264 262 258 253 244 253 246 247 245 246 243 245 248 248 248 255 259 262 265 268 272
281 281 279 288 289 290 288 283 283 283 288 286 280 277 274 277 275 273 270 269 269 268 266 263 262 258 253 244 246 245 241 248 249 248 243 244 249 252 254 257 260 262 266 271
278 278 283 289 293 287 286 284 287 299 289 287 288 283 280 280 280 276 273 271 269 267 267 265 263 260 256 247 246 248 244 235 239 233 236 246 248 253 259 256 260 262 263 268
280 283 285 297 289 285 287 285 289 278 278 275 275 279 277 276 278 280 279 276 271 264 263 265 266 265 260 254 248 246 247 238 240 234 236 241 241 249 253 255 258 259 262 265
283 286 289 290 289 289 288 295 289 281 274 270 281 283 284 283 287 281 282 285 281 276 265 261 264 265 265 260 253 249 243 247 249 245 247 236 239 241 244 254 254 259 265 268
287 284 288 294 289 289 289 289 289 281 279 277 281 278 275 276 283 284 283 282 281 284 280 272 268 268 265 262 256 251 248 244 255 264 261 257 239 245 248 259 257 264 270 275
287 290 297 298 292 283 287 293 290 285 277 281 282 278 273 270 275 281 282 287 288 290 283 275 267 266 268 261 257 254 253 253 259 257 256 252 256 251 253 256 259 264 271 276
289 287 288 283 281 288 288 285 286 284 283 281 285 276 271 272 269 277 277 282 282 284 289 273 267 261 266 266 259 256 257 258 265 262 258 255 263 252 259 263 259 267 270 271
277 287 289 286 292 289 285 289 287 284 281 281 282 281 276 273 274 278 279 275 275 281 295 273 261 258 263 264 264 253 255 260 257 248 254 255 258 262 262 263 264 269 270 269
294 297 294 300 290 291 286 290 282 280 284 282 284 282 278 277 275 274 278 277 277 281 290 272 260 260 257 253 259 252 250 259 247 248 247 254 257 261 264 261 264 268 270 279
300 293 295 295 294 291 290 294 292 291 291 284 274 279 275 273 275 275 280 283 278 281 290 269 260 257 248 250 259 249 256 253 251 247 252 259 256 256 260 263 267 267 270 270
308 306 309 305 302 296 295 295 293 294 294 285 284 274 276 277 275 273 277 278 280 278 282 259 258 247 244 249 258 255 260 246 228 237 246 250 254 255 259 262 265 265 268 271
311 309 310 309 306 302 300 298 297 291 296 290 284 284 278 274 274 272 271 275 272 272 258 261 251 242 245 250 254 250 271 263 235 238 242 242 245 248 253 256 265 267 265 266
314 315 312 308 306 305 303 301 295 294 293 284 282 278 276 282 276 269 266 266 265 254 251 253 241 250 259 256 257 265 259 261 239 229 223 227 238 247 255 259 261 261 263 265
319 316 316 316 310 305 300 299 294 295 298 298 295 293 288 288 289 284 273 259 251 251 259 239 248 248 254 265 261 264 286 268 237 230 236 241 245 251 253 257 261 261 260 257
311 314 320 323 321 322 314 301 300 306 306 305 303 279 279 286 294 282 280 269 272 266 244 245 251 253 255 259 256 261 275 266 261 250 245 242 245 247 253 256 254 255 257 261
317 318 320 321 319 307 308 315 320 311 305 305 309 311 297 285 285 263 261 279 270 240 245 258 273 273 268 273 266 276 267 257 258 258 256 250 248 247 250 253 253 251 252 255
317 317 321 318 319 324 334 337 326 316 309 308 304 298 268 277 274 282 292 278 266 248 246 265 284 296 293 281 266 264 265 252 244 239 239 243 247 248 254 258 262 265 265 264
316 320 322 326 340 337 340 346 341 350 3 355 330 314 285 276 275 279 279 283 276 281 305 313 299 271 254 254 261 261 254 254 257 258 258 261 264 267 266 266 267 267 266 266
318 319 320 326 343 6 9 15 27 32 41 44 46 44 42 27 29 81 98 101 120 130 122 138 260 272 271 273 268 262 264 264 264 265 267 266 266 266 268 270 272 274 274 275
318 320 347 30 47 46 41 32 43 40 28 41 48 52 60 65 65 67 71 66 63 47 355 309 298 293 289 287 287 283 279 277 277 275 274 275 276 276 275 275 274 274 274 274
310 316 355 25 47 43 32 20 18 29 29 30 35 37 35 37 37 32 11 356 343 323 308 304 299 297 298 294 289 287 287 285 283 283 282 282 281 279 279 277 276 275 276 275
298 318 331 5 6 11 11 21 36 46 37 35 37 37 29 33 25 15 359 342 331 321 315 307 301 298 295 294 291 289 288 287 284 282 282 282 282 280 279 279 279 277 276 276
283 300 312 327 337 346 352 355 5 8 4 1 0 357 352 349 344 338 333 328 324 318 312 310 308 305 301 297 295 293 292 291 289 288 286 285 284 282 282 281 280 280 279 279
280 298 303 317 323 332 339 343 351 351 348 346 344 348 349 346 342 340 335 329 324 322 320 315 312 309 307 305 302 300 297 294 292 290 287 284 282 280 279 278 277 276 275 275